When you browse on this site, cookies collect data to enhance your experience and personalize the content and advertising you see.
Visit our Privacy Policy to learn more. By continuing to use the site, you agree to this use of cookies and data.
  • In Schweiz
  • Länderverzeichnis
  • Für 7 Tage
  • Wassertemperatur
  • Satellitenkarten
  • Wetterkarte
  • Widgets
  • user-avatar
    Anmelden

    Stündliche Wetter Plavneve

    Heute, 26 April, Freitag

    Zeit Temperatur Niederschläge Wind Luftdruck Luftfeuchtigkeit
    00:00 +9°C° 0 mm 3 m/S 765 mmHg 66%
    01:00 +9°C° 0 mm 2 m/S 765 mmHg 67%
    02:00 +9°C° 0 mm 2 m/S 765 mmHg 69%
    03:00 +8°C° 0 mm 2 m/S 765 mmHg 71%
    04:00 +8°C° 0 mm 2 m/S 764 mmHg 72%
    05:00 +8°C° 0 mm 2 m/S 764 mmHg 73%
    06:00 +10°C° 0 mm 3 m/S 764 mmHg 67%
    07:00 +12°C° 0 mm 3 m/S 764 mmHg 61%
    08:00 +14°C° 0 mm 3 m/S 764 mmHg 53%
    09:00 +17°C° 0 mm 4 m/S 764 mmHg 48%
    10:00 +18°C° 0 mm 4 m/S 764 mmHg 42%
    11:00 +20°C° 0 mm 5 m/S 764 mmHg 37%
    12:00 +21°C° 0 mm 5 m/S 764 mmHg 37%
    13:00 +21°C° 0 mm 5 m/S 763 mmHg 36%
    14:00 +22°C° 0 mm 5 m/S 763 mmHg 36%
    15:00 +21°C° 0 mm 5 m/S 763 mmHg 37%
    16:00 +20°C° 0 mm 5 m/S 762 mmHg 37%
    17:00 +20°C° 0 mm 5 m/S 762 mmHg 38%
    18:00 +17°C° 0 mm 5 m/S 762 mmHg 43%
    19:00 +15°C° 0 mm 4 m/S 762 mmHg 48%
    20:00 +13°C° 0 mm 4 m/S 762 mmHg 52%
    21:00 +12°C° 0 mm 3 m/S 762 mmHg 55%
    22:00 +11°C° 0 mm 3 m/S 762 mmHg 57%
    23:00 +11°C° 0 mm 3 m/S 762 mmHg 59%

    Morgen, 27 April, Samstag

    Zeit Temperatur Niederschläge Wind Luftdruck Luftfeuchtigkeit
    00:00 +10°C° 0 mm 3 m/S 762 mmHg 60%
    01:00 +10°C° 0 mm 3 m/S 762 mmHg 61%
    02:00 +10°C° 0 mm 3 m/S 761 mmHg 62%
    03:00 +9°C° 0 mm 3 m/S 761 mmHg 63%
    04:00 +9°C° 0 mm 3 m/S 761 mmHg 64%
    05:00 +9°C° 0 mm 3 m/S 760 mmHg 65%
    06:00 +11°C° 0 mm 4 m/S 760 mmHg 60%
    07:00 +12°C° 0 mm 4 m/S 760 mmHg 55%
    08:00 +14°C° 0 mm 5 m/S 760 mmHg 51%
    09:00 +16°C° 0 mm 5 m/S 760 mmHg 46%
    10:00 +19°C° 0 mm 6 m/S 760 mmHg 42%
    11:00 +21°C° 0 mm 6 m/S 760 mmHg 37%
    12:00 +21°C° 0 mm 7 m/S 759 mmHg 37%
    13:00 +22°C° 0 mm 7 m/S 759 mmHg 36%
    14:00 +23°C° 0 mm 7 m/S 758 mmHg 35%
    15:00 +22°C° 0 mm 7 m/S 758 mmHg 37%
    16:00 +21°C° 0 mm 7 m/S 758 mmHg 39%
    17:00 +21°C° 0 mm 6 m/S 757 mmHg 40%
    18:00 +19°C° 0 mm 6 m/S 757 mmHg 46%
    19:00 +15°C° 0 mm 5 m/S 757 mmHg 51%
    20:00 +13°C° 0 mm 4 m/S 757 mmHg 57%
    21:00 +12°C° 0 mm 4 m/S 757 mmHg 59%
    22:00 +12°C° 0 mm 4 m/S 757 mmHg 62%
    23:00 +11°C° 0 mm 4 m/S 757 mmHg 65%

    übermorgen, 28 April, Sonntag

    Zeit Temperatur Niederschläge Wind Luftdruck Luftfeuchtigkeit
    00:00 +10°C° 0 mm 3 m/S 757 mmHg 67%
    01:00 +10°C° 0 mm 3 m/S 756 mmHg 69%
    02:00 +9°C° 0 mm 3 m/S 756 mmHg 71%
    03:00 +9°C° 0 mm 3 m/S 756 mmHg 72%
    04:00 +9°C° 0 mm 3 m/S 756 mmHg 73%
    05:00 +8°C° 0 mm 3 m/S 756 mmHg 74%
    06:00 +10°C° 0 mm 3 m/S 756 mmHg 68%
    07:00 +12°C° 0 mm 4 m/S 756 mmHg 61%
    08:00 +14°C° 0 mm 4 m/S 756 mmHg 55%
    09:00 +17°C° 0 mm 4 m/S 756 mmHg 49%
    10:00 +19°C° 0 mm 5 m/S 756 mmHg 44%
    11:00 +21°C° 0 mm 5 m/S 755 mmHg 38%
    12:00 +21°C° 0 mm 5 m/S 755 mmHg 38%
    13:00 +22°C° 0 mm 6 m/S 755 mmHg 37%
    14:00 +22°C° 0 mm 6 m/S 755 mmHg 37%
    15:00 +22°C° 0 mm 6 m/S 754 mmHg 39%
    16:00 +21°C° 0 mm 6 m/S 754 mmHg 41%
    17:00 +20°C° 0 mm 5 m/S 754 mmHg 44%
    18:00 +17°C° 0 mm 5 m/S 754 mmHg 50%
    19:00 +15°C° 0 mm 4 m/S 754 mmHg 57%
    20:00 +13°C° 0 mm 4 m/S 755 mmHg 63%
    21:00 +12°C° 0 mm 3 m/S 755 mmHg 67%
    22:00 +12°C° 0 mm 3 m/S 755 mmHg 70%
    23:00 +11°C° 0 mm 3 m/S 755 mmHg 73%

    29 April, Montag

    Zeit Temperatur Niederschläge Wind Luftdruck Luftfeuchtigkeit
    00:00 +11°C° 0 mm 3 m/S 755 mmHg 75%
    01:00 +11°C° 0 mm 3 m/S 755 mmHg 77%
    02:00 +10°C° 0 mm 3 m/S 755 mmHg 79%
    03:00 +10°C° 0 mm 3 m/S 755 mmHg 81%
    04:00 +10°C° 0 mm 2 m/S 755 mmHg 83%
    05:00 +10°C° 0 mm 2 m/S 755 mmHg 84%
    06:00 +12°C° 0.2 mm 3 m/S 755 mmHg 80%
    07:00 +13°C° 0.2 mm 3 m/S 755 mmHg 75%
    08:00 +16°C° 0.2 mm 3 m/S 755 mmHg 70%
    09:00 +18°C° 0 mm 4 m/S 755 mmHg 64%
    10:00 +20°C° 0 mm 4 m/S 755 mmHg 58%
    11:00 +22°C° 0 mm 5 m/S 755 mmHg 52%
    12:00 +22°C° 0 mm 5 m/S 755 mmHg 49%
    13:00 +23°C° 0 mm 5 m/S 754 mmHg 46%
    14:00 +25°C° 0 mm 5 m/S 754 mmHg 42%
    15:00 +23°C° 0 mm 5 m/S 754 mmHg 44%
    16:00 +22°C° 0 mm 6 m/S 753 mmHg 46%
    17:00 +22°C° 0 mm 6 m/S 753 mmHg 48%
    18:00 +20°C° 0 mm 5 m/S 753 mmHg 55%
    19:00 +17°C° 0 mm 5 m/S 754 mmHg 62%
    20:00 +15°C° 0 mm 5 m/S 754 mmHg 69%
    21:00 +14°C° 0.1 mm 4 m/S 754 mmHg 73%
    22:00 +13°C° 0.1 mm 4 m/S 754 mmHg 78%
    23:00 +13°C° 0.1 mm 3 m/S 754 mmHg 83%

    30 April, Dienstag

    Zeit Temperatur Niederschläge Wind Luftdruck Luftfeuchtigkeit
    00:00 +13°C° 0 mm 3 m/S 754 mmHg 83%
    01:00 +12°C° 0 mm 3 m/S 753 mmHg 84%
    02:00 +12°C° 0 mm 3 m/S 753 mmHg 84%
    03:00 +12°C° 0 mm 3 m/S 753 mmHg 85%
    04:00 +12°C° 0 mm 3 m/S 753 mmHg 86%
    05:00 +11°C° 0 mm 3 m/S 753 mmHg 86%
    06:00 +13°C° 0 mm 3 m/S 753 mmHg 79%
    07:00 +16°C° 0 mm 3 m/S 753 mmHg 72%
    08:00 +18°C° 0 mm 4 m/S 753 mmHg 64%
    09:00 +19°C° 0 mm 4 m/S 753 mmHg 57%
    10:00 +21°C° 0 mm 5 m/S 753 mmHg 51%
    11:00 +23°C° 0 mm 5 m/S 753 mmHg 44%
    12:00 +23°C° 0 mm 5 m/S 752 mmHg 41%
    13:00 +25°C° 0 mm 5 m/S 752 mmHg 38%
    14:00 +25°C° 0 mm 5 m/S 751 mmHg 35%
    15:00 +23°C° 0 mm 5 m/S 751 mmHg 40%
    16:00 +22°C° 0 mm 6 m/S 751 mmHg 45%
    17:00 +20°C° 0 mm 6 m/S 751 mmHg 50%
    18:00 +19°C° 0 mm 5 m/S 751 mmHg 55%
    19:00 +17°C° 0 mm 4 m/S 751 mmHg 60%
    20:00 +16°C° 0 mm 3 m/S 751 mmHg 65%
    21:00 +14°C° 0 mm 3 m/S 751 mmHg 68%
    22:00 +13°C° 0 mm 3 m/S 751 mmHg 71%
    23:00 +14°C° 0 mm 2 m/S 751 mmHg 73%

    1 Mai, Mittwoch

    Zeit Temperatur Niederschläge Wind Luftdruck Luftfeuchtigkeit
    00:00 +13°C° 0 mm 2 m/S 751 mmHg 74%
    01:00 +13°C° 0 mm 2 m/S 751 mmHg 74%
    02:00 +13°C° 0 mm 2 m/S 751 mmHg 75%
    03:00 +12°C° 0 mm 1 m/S 751 mmHg 77%
    04:00 +12°C° 0 mm 1 m/S 751 mmHg 80%
    05:00 +12°C° 0 mm 1 m/S 751 mmHg 83%
    06:00 +13°C° 0 mm 1 m/S 751 mmHg 80%
    07:00 +14°C° 0 mm 2 m/S 751 mmHg 77%
    08:00 +14°C° 0 mm 3 m/S 751 mmHg 75%
    09:00 +16°C° 0.1 mm 3 m/S 751 mmHg 74%
    10:00 +16°C° 0.1 mm 3 m/S 751 mmHg 73%
    11:00 +16°C° 0.1 mm 3 m/S 751 mmHg 72%
    12:00 +15°C° 0.5 mm 4 m/S 751 mmHg 74%
    13:00 +14°C° 0.5 mm 5 m/S 751 mmHg 76%
    14:00 +14°C° 0.5 mm 6 m/S 751 mmHg 77%
    15:00 +14°C° 0.2 mm 6 m/S 751 mmHg 76%
    16:00 +13°C° 0.2 mm 6 m/S 751 mmHg 74%
    17:00 +13°C° 0.2 mm 6 m/S 751 mmHg 73%
    18:00 +12°C° 0 mm 5 m/S 752 mmHg 74%
    19:00 +12°C° 0 mm 4 m/S 752 mmHg 76%
    20:00 +11°C° 0 mm 3 m/S 753 mmHg 77%
    21:00 +10°C° 0 mm 3 m/S 753 mmHg 81%
    22:00 +9°C° 0 mm 3 m/S 753 mmHg 84%
    23:00 +9°C° 0 mm 3 m/S 754 mmHg 87%
    Mehr zeigen